Simultaneous Nadir Overpasses (SNOs) Predictions

Prediction of SNOs between METOP-B and NOAA-19 Satellite Orbit:

Table of predicted SNOs for the next 14.0 days since TLE Epoch: 12/19/2012
Index Date (METOP-B) Time (METOP-B) Lat,Lon (METOP-B) SZA (METOP-B ) Date (NOAA-19) Time (NOAA-19) Lat,Lon (NOAA-19) SZA (NOAA-19 ) Distance(km) Time Diff (sec)
1 12/25/2012 22:07:21 73.19,-158.82 96.57 12/25/2012 22:06:06 73.17,-158.77 96.57 2.15 75
2 12/25/2012 22:58:04 -73.16, 8.45 83.46 12/25/2012 22:57:03 -73.18, 8.48 83.43 2.33 61
3 12/25/2012 23:48:43 73.17, 175.80 96.55 12/25/2012 23:48:11 73.18, 175.69 96.57 3.76 32
4 12/26/2012 00:39:26 -73.14, -16.93 83.48 12/26/2012 00:39:07 -73.14, -16.94 83.48 0.52 19
5 12/26/2012 01:30:06 73.10, 150.31 96.48 12/26/2012 01:30:14 73.09, 150.38 96.47 2.40 8
6
